Weather History for Nashville, TN

Change the Weather History Date:

Monday, February 24, 2014

  Actual Average Record
Temperature  
Mean Temperature 38 °F 44 °F  
Max Temperature 49 °F 55 °F 77 °F (1890)
Min Temperature 27 °F 34 °F 10 °F (1967)
Degree Days  
Heating Degree Days 27 21  
Month to date heating degree days 591 572  
Since 1 July heating degree days 3062 2857  
Cooling Degree Days 0 0  
Month to date cooling degree days 0 0  
Year to date cooling degree days 0 0  
Moisture  
Dew Point 16 °F    
Average Humidity 51    
Maximum Humidity 82    
Minimum Humidity 19    
Precipitation  
Precipitation 0.00 in 0.15 in 2.10 in (2011)
Month to date precipitation 5.09 3.38  
Year to date precipitation 7.70 7.13  
Snow  
Snow 0.00 in 0.10 in 1.00 in (1934)
Month to date snowfall 0.1 2.1  
Since 1 July snowfall 1.4 5.2  
Snow Depth 0.00 in    
Sea Level Pressure  
Sea Level Pressure 30.25 in    
Wind  
Wind Speed 8 mph (NNE)    
Max Wind Speed 16 mph    
Max Gust Speed 21 mph    
Visibility 10 miles    
Events      
T = Trace of Precipitation, MM = Missing Value Source: NWS Daily Summary

Daily Weather History Graph

Daily Weather History Graph

Search for Another Location

Airport:

Trip Planner

Search our weather history database for the weather conditions in past years. The results will help you decide how hot, cold, wet, or windy it might be!

Date:

Astronomy

Feb. 24, 2014 Rise Set
Actual Time 6:23 AM CST 5:36 PM CST
Civil Twilight 5:57 AM CST 6:02 PM CST
Nautical Twilight 5:27 AM CST 6:32 PM CST
Astronomical Twilight 4:58 AM CST 7:02 PM CST
Moon 2:16 AM CST (2/24) 12:43 PM CST (2/24)
Length of Visible Light 12h 05m
Length of Day
11h 13m
Waning Crescent, 28% of the Moon is Illuminated
Feb 24
Waning Crescent
Mar 1
New
Mar 8
First Quarter
Mar 16
Full
Mar 23
Last Quarter

Hourly Weather History & Observations

Time (CST) Temp. Windchill Dew Point Humidity Pressure Visibility Wind Dir Wind Speed Gust Speed Precip Events Conditions
12:53 AM 34.0 °F 26.0 °F 28.0 °F 79% 30.23 in 10.0 mi North 10.4 mph - N/A   Partly Cloudy
1:18 AM 33.8 °F 25.8 °F 28.4 °F 81% 30.24 in 10.0 mi North 10.4 mph - N/A   Mostly Cloudy
1:53 AM 34.0 °F 25.0 °F 27.0 °F 75% 30.24 in 10.0 mi North 12.7 mph - N/A   Overcast
2:18 AM 32.0 °F 24.8 °F 24.8 °F 75% 30.24 in 10.0 mi North 8.1 mph - N/A   Scattered Clouds
2:53 AM 30.0 °F 23.2 °F 24.1 °F 79% 30.24 in 10.0 mi North 6.9 mph - N/A   Partly Cloudy
3:53 AM 30.0 °F 22.4 °F 23.0 °F 75% 30.26 in 10.0 mi North 8.1 mph - N/A   Partly Cloudy
4:53 AM 28.9 °F 21.1 °F 21.0 °F 72% 30.29 in 10.0 mi North 8.1 mph - N/A   Partly Cloudy
5:53 AM 27.0 °F 19.5 °F 19.0 °F 72% 30.28 in 10.0 mi NNE 6.9 mph - N/A   Clear
6:53 AM 28.9 °F 20.4 °F 18.0 °F 64% 30.30 in 10.0 mi North 9.2 mph - N/A   Partly Cloudy
7:53 AM 32.0 °F 22.5 °F 16.0 °F 52% 30.32 in 10.0 mi NNE 12.7 mph - N/A   Partly Cloudy
8:53 AM 35.1 °F 27.9 °F 12.9 °F 40% 30.35 in 10.0 mi NNE 9.2 mph - N/A   Clear
9:53 AM 37.9 °F 30.5 °F 12.0 °F 35% 30.34 in 10.0 mi NE 11.5 mph - N/A   Clear
10:53 AM 41.0 °F 34.3 °F 10.9 °F 29% 30.34 in 10.0 mi North 11.5 mph 18.4 mph N/A   Partly Cloudy
11:53 AM 43.0 °F 38.8 °F 10.9 °F 27% 30.31 in 10.0 mi NNE 6.9 mph - N/A   Partly Cloudy
12:53 PM 46.0 °F 40.2 °F 10.9 °F 24% 30.27 in 10.0 mi NE 12.7 mph - N/A   Partly Cloudy
1:53 PM 48.0 °F - 10.0 °F 22% 30.25 in 10.0 mi NNE 12.7 mph - N/A   Partly Cloudy
2:53 PM 48.0 °F - 9.0 °F 21% 30.25 in 10.0 mi Calm Calm - N/A   Partly Cloudy
3:53 PM 48.0 °F - 10.0 °F 22% 30.23 in 10.0 mi NE 8.1 mph - N/A   Partly Cloudy
4:53 PM 46.0 °F 41.4 °F 10.9 °F 24% 30.22 in 10.0 mi North 9.2 mph - N/A   Partly Cloudy
5:53 PM 42.1 °F 36.6 °F 12.9 °F 31% 30.21 in 10.0 mi North 9.2 mph - N/A   Partly Cloudy
6:53 PM 39.0 °F 33.4 °F 15.1 °F 38% 30.21 in 10.0 mi NNE 8.1 mph - N/A   Clear
7:53 PM 37.0 °F 31.6 °F 15.1 °F 41% 30.19 in 10.0 mi North 6.9 mph - N/A   Clear
8:53 PM 36.0 °F 30.3 °F 15.1 °F 43% 30.19 in 10.0 mi North 6.9 mph - N/A   Clear
9:53 PM 36.0 °F 31.1 °F 16.0 °F 44% 30.20 in 10.0 mi North 5.8 mph - N/A   Clear
10:53 PM 35.1 °F 32.2 °F 16.0 °F 46% 30.16 in 10.0 mi ENE 3.5 mph - N/A   Scattered Clouds
11:53 PM 37.0 °F 32.4 °F 16.0 °F 42% 30.15 in 10.0 mi North 5.8 mph - N/A   Overcast